DW7816 Weather Reports


time (UTC)temp
F
wind
direction
speed
knots
gust
knots
rain 1hr
in
rain 24hr
in
rain mn
in
humidity
%
barometer
mb
20260506092026 45 148 0.0 0.0 0.00 0.07 0.00 93 1015.1
20260506091024 45 39 0.0 0.0 0.00 0.08 0.00 92 1014.7
20260506083804 44 129 0.9 7.8 0.00 0.15 0.00 92 1013.1
20260506082734 44 113 2.6 7.8 0.00 0.16 0.00 92 1012.6
20260506081751 44 147 1.7 7.0 0.00 0.16 0.00 93 1012.9
20260506080806 44 69 1.7 7.0 0.00 0.16 0.00 93 1012.8
20260506072554 44 57 0.0 3.5 0.00 0.16 0.00 94 1013.7
20260506070458 44 111 0.9 3.5 0.00 0.16 0.00 94 1013.9
20260506061416 44 54 1.7 6.1 0.00 0.16 0.00 93 1014.3
20260506060419 44 52 0.9 3.5 0.00 0.16 0.00 93 1014.1
20260506051220 44 159 0.9 0.0 0.00 0.16 0.00 92 1013.4
20260506050226 44 117 0.9 2.6 0.00 0.16 0.00 92 1013.2
20260506044230 44 133 1.7 7.8 0.00 0.16 0.17 93 1012.6
20260506043218 45 116 0.9 7.8 0.00 0.16 0.17 95 1013.1
20260506042147 45 84 1.7 7.0 0.00 0.16 0.17 95 1012.5
20260506041116 45 45 1.7 7.0 0.00 0.16 0.17 95 1012.3
20260506040123 45 87 0.0 4.3 0.00 0.16 0.17 96 1012.4
20260506035125 45 42 0.0 5.2 0.00 0.16 0.17 95 1012.5
20260506034144 45 69 0.9 5.2 0.00 0.16 0.17 96 1012.6
20260506033200 45 14 1.7 6.1 0.00 0.16 0.17 95 1012.8
20260506032216 45 12 1.7 7.8 0.00 0.16 0.17 95 1013.1
20260506031235 45 0 1.7 7.8 0.00 0.16 0.17 95 1012.1
20260506025102 45 134 0.9 6.1 0.05 0.16 0.16 95 1011.3
20260506024126 45 331 0.9 7.8 0.27 0.14 0.16 95 1011.6
20260506023149 45 60 0.9 7.0 0.00 0.12 0.12 95 1011.4
20260506022129 45 108 1.7 7.8 0.00 0.12 0.12 95 1011.2
20260506021144 45 317 0.9 7.0 0.00 0.12 0.12 95 1011.1
20260506020149 45 149 0.9 7.0 0.00 0.12 0.12 95 1010.9
20260506014049 45 138 0.0 6.1 0.00 0.12 0.12 95 1010.6
20260506013029 45 24 0.9 6.1 0.00 0.12 0.12 95 1010.6
20260506010919 45 140 0.9 6.1 0.00 0.12 0.12 95 1010.2
20260506005920 46 73 0.9 6.1 0.00 0.12 0.12 95 1010.1
20260506004912 45 150 0.9 6.1 0.00 0.12 0.12 95 1010.1
20260506002736 46 92 1.7 8.7 0.00 0.10 0.10 95 1009.5
20260506001707 46 105 1.7 7.0 0.00 0.10 0.10 95 1009.6
20260506000645 46 221 0.9 7.8 0.00 0.10 0.10 95 1009.0
20260505235633 46 65 1.7 8.7 0.00 0.10 0.10 95 1009.0
20260505234621 46 122 1.7 8.7 0.00 0.10 0.10 95 1009.5
20260505232517 46 85 2.6 10.4 0.00 0.10 0.10 94 1008.9
20260505231538 47 59 1.7 10.4 0.00 0.10 0.10 94 1008.5
20260505230514 47 109 1.7 8.7 0.00 0.09 0.10 94 1008.9
20260505225505 47 143 1.7 8.7 0.00 0.09 0.10 93 1008.7
20260505224503 48 185 1.7 8.7 0.00 0.09 0.10 92 1009.1
20260505223506 48 63 1.7 8.7 0.00 0.09 0.10 91 1008.9
20260505222510 48 235 1.7 12.2 0.00 0.09 0.10 91 1008.5
20260505221503 48 148 3.5 12.2 0.00 0.09 0.10 90 1008.2
20260505215339 48 11 1.7 11.3 0.00 0.09 0.10 91 1008.4
20260505213224 48 243 1.7 7.0 0.00 0.09 0.10 91 1008.5
20260505212239 49 21 1.7 7.8 0.00 0.09 0.10 93 1008.2
20260505211217 49 140 1.7 7.8 0.00 0.09 0.10 93 1008.1
20260505210225 49 13 1.7 5.2 0.00 0.09 0.10 93 1008.1
20260505205151 50 165 0.9 5.2 0.00 0.09 0.10 94 1008.2
20260505204144 50 43 1.7 6.1 0.00 0.09 0.10 93 1008.4
20260505203204 50 41 0.9 6.1 0.00 0.09 0.10 94 1008.1
20260505202212 51 98 0.9 7.0 0.00 0.09 0.10 94 1007.8
20260505201222 51 74 1.7 7.0 0.00 0.09 0.10 94 1007.4
20260505200153 51 306 2.6 7.0 0.00 0.09 0.10 94 1007.5
20260505195204 51 95 1.7 7.0 0.00 0.09 0.10 93 1007.8
20260505193053 52 132 1.7 10.4 0.00 0.09 0.10 91 1008.2
20260505192103 53 102 1.7 13.0 0.00 0.09 0.10 91 1007.6
20260505191113 53 123 4.3 13.0 0.00 0.09 0.10 89 1007.4
20260505190111 53 114 1.7 8.7 0.00 0.09 0.10 87 1007.6
20260505185133 54 94 1.7 11.3 0.00 0.09 0.10 89 1007.7
20260505184111 54 102 2.6 11.3 0.00 0.09 0.10 87 1007.8
20260505182036 55 108 3.5 10.4 0.00 0.09 0.10 86 1007.3
20260505181032 56 123 2.6 10.4 0.00 0.09 0.10 87 1007.1
20260505180040 56 136 2.6 8.7 0.00 0.09 0.10 86 1007.1
20260505175029 56 148 1.7 7.8 0.00 0.09 0.10 86 1007.2
20260505174037 56 80 0.9 10.4 0.00 0.09 0.10 87 1007.2
20260505173029 56 157 2.6 10.4 0.00 0.09 0.10 87 1007.3
20260505170912 56 95 2.6 7.8 0.00 0.09 0.10 87 1007.2
20260505165902 56 322 1.7 8.7 0.00 0.09 0.10 87 1007.2
20260505163750 57 128 1.7 7.0 0.00 0.09 0.10 85 1007.1
20260505161641 57 51 2.6 10.4 0.00 0.09 0.10 88 1007.4
20260505160616 58 48 2.6 10.4 0.00 0.09 0.10 88 1007.6
20260505152647 59 130 5.2 9.6 0.00 0.09 0.10 88 1006.1
20260505151637 59 188 3.5 9.6 0.00 0.09 0.10 88 1006.0
20260505150608 59 113 4.3 7.8 0.00 0.09 0.10 86 1006.2
20260505140403 59 159 2.6 6.1 0.00 0.09 0.10 88 1006.2
20260505130300 57 126 2.6 8.7 0.00 0.09 0.10 89 1005.8
20260505124322 57 162 2.6 9.6 0.00 0.09 0.10 90 1005.7
20260505122208 58 173 3.5 8.7 0.00 0.09 0.10 91 1005.3
20260505121223 58 161 2.6 7.0 0.00 0.09 0.10 92 1005.6
20260505120240 58 108 0.9 7.0 0.00 0.09 0.10 92 1005.2
20260505115226 59 118 0.0 7.8 0.00 0.09 0.10 92 1005.4
20260505114203 59 175 0.9 5.2 0.00 0.09 0.10 93 1005.2
20260505113131 59 71 1.7 7.8 0.00 0.09 0.10 94 1004.5
20260505112142 60 220 0.9 0.9 0.00 0.09 0.10 95 1004.6
20260505111155 60 355 0.9 7.0 0.00 0.09 0.10 95 1005.8
20260505110139 60 67 1.7 7.0 0.00 0.09 0.10 94 1004.9
20260505102005 58 38 0.0 2.6 0.00 0.09 0.10 96 1004.4
20260505100958 59 203 0.0 0.0 0.00 0.09 0.10 95 1004.2
20260505100006 59 203 0.0 0.0 0.00 0.09 0.10 95 1004.0
20260505095005 59 203 0.0 0.0 0.00 0.09 0.10 94 1003.5
20260505094020 59 203 0.0 4.3 0.04 0.09 0.10 93 1003.5
20260505093002 59 290 2.6 8.7 0.04 0.09 0.10 94 1003.1